Flag for Germany Weather past 2 weeks in Lutherstadt Eisleben, Saxony-Anhalt, Germany

Now
42 °F

Overcast.


Feels Like: 38 °F
Forecast: 45 / 52 °F
Wind: 6 mph from Northwest

Location: Leipzig-Schkeuditz

Current Time: Mar 28, 2015 at 5:30:28 AM

Latest Report: Mar 28, 2015 at 3:00 AM


Visibility: 16 mi

Pressure: 30.17 "Hg

Humidity: 77%

Dew point: 35 °F

Location of Lutherstadt EislebenLocation

Historic Weather in Lutherstadt Eisleben — Graph

°F

Lutherstadt Eisleben temperature yesterday

Maximum temperature yesterday: 51 °F (at 1:00 PM)
Minimum temperature yesterday: 41 °F (at 3:00 AM)
Average temperature yesterday: 44 °F

Past Weeks' High & Low Weather Summary

 TemperatureHumidityPressure
High62 °F (Mar 25, 3:00 PM)98% (Mar 14, 8:00 AM)30.41 "Hg (Mar 14, 8:00 AM)
Low26 °F (Mar 23, 3:00 AM)25% (Mar 19, 3:00 PM)29.61 "Hg (Mar 26, 2:00 AM)
Average42 °F74%30.15 "Hg
* Reported Mar 13 3:00 AM — Mar 28 3:00 AM, Lutherstadt Eisleben, Weather by CustomWeather, © 2015

Note: Actual official high and low records may vary slightly from our data, if they occured in-between our weather recording intervals... More about our weather records

Advertising

Lutherstadt Eisleben weather history for previous 24 hours

 ConditionsComfort  
Time TempWeatherWind HumidityBarometerVisibility
3:00 AM
Sat, Mar 28
42 °FOvercast.6 mph77%30.17 "Hg16 mi
2:00 AM42 °FOvercast.6 mph77%30.16 "Hg16 mi
1:00 AM42 °FOvercast.8 mph78%30.16 "Hg19 mi
12:00 AM42 °FOvercast.6 mph84%30.15 "Hg19 mi
11:00 PM
Fri, Mar 27
42 °FLight rain. Overcast.6 mph87%30.13 "Hg19 mi
10:00 PM43 °FOvercast.8 mph79%30.11 "Hg31 mi
9:00 PM44 °FOvercast.8 mph75%30.09 "Hg31 mi
8:00 PM44 °FOvercast.8 mph76%30.07 "Hg31 mi
7:00 PM44 °FLight rain. Overcast.8 mph77%30.05 "Hg31 mi
6:00 PM44 °FLight rain. Overcast.8 mph76%30.03 "Hg31 mi
5:00 PM46 °FOvercast.9 mph69%30.01 "Hg31 mi
3:00 PM47 °FOvercast.9 mph69%29.97 "Hg19 mi
2:00 PM51 °FPartly sunny.10 mph56%29.94 "Hg28 mi
1:00 PM51 °FOvercast.8 mph56%29.94 "Hg28 mi
12:00 PM48 °FOvercast.10 mph57%29.92 "Hg22 mi
11:00 AM48 °FPartly sunny.7 mph60%29.92 "Hg19 mi
9:00 AM44 °FOvercast.7 mph80%29.91 "Hg9 mi
8:00 AM43 °FOvercast.5 mph85%29.89 "Hg9 mi
7:00 AM41 °FOvercast.6 mph89%29.87 "Hg11 mi
6:00 AM41 °FOvercast.7 mph87%29.85 "Hg9 mi
5:00 AM41 °FLight rain. Overcast.6 mph88%29.83 "Hg11 mi
Weather by CustomWeather, © 2015

See weather overviewHow to use our weather pages